NULL Weather Reports


Display with metric or nautical units.
time (UTC)temp
F
wind
direction
speed
MPH
gust
MPH
rain 1hr
in
rain 24hr
in
rain mn
in
humidity
%
barometer
mb
20260502163047 56 35 1.0 11.0 0.00 0.00 0.00 35 1023.5
20260502163035 61 156 0.0 0.0 0.00 0.00 0.00 91 1014.4
20260502161554 57 297 3.0 9.0 0.00 0.00 0.00 37 1023.5
20260502161527 61 164 0.0 0.0 0.00 0.00 0.00 91 1014.3
20260502151527 54 354 3.0 9.0 0.00 0.00 0.00 47 1023.6
20260502151521 60 170 0.0 0.0 0.00 0.00 0.00 92 1014.1
20260502123009 60 179 0.0 0.0 0.00 0.00 0.00 89 1013.3
20260502121509 60 182 0.0 0.0 0.00 0.00 0.00 89 1013.0
20260502121506 39 320 2.0 5.0 0.00 0.00 0.00 78 1022.9
20260502114507 60 182 0.0 0.0 0.00 0.00 0.00 89 1012.8
20260502114504 37 359 0.0 1.0 0.00 0.00 0.00 83 1022.6
20260502113006 60 182 0.0 0.0 0.00 0.00 0.00 89 1012.7
20260502113001 37 359 0.0 0.0 0.00 0.00 0.00 82 1022.3
20260502111558 37 359 0.0 0.0 0.00 0.00 0.00 82 1022.1
20260502111505 60 192 0.0 0.0 0.00 0.00 0.00 89 1012.8
20260502110058 37 359 0.0 1.0 0.00 0.00 0.00 82 1022.0
20260502110005 60 197 0.0 0.0 0.00 0.00 0.00 89 1012.8
20260502104556 38 359 0.0 0.0 0.00 0.00 0.00 81 1022.0
20260502104504 60 197 0.0 0.0 0.00 0.00 0.00 89 1012.6
20260502103054 38 359 0.0 0.0 0.00 0.00 0.00 81 1021.8
20260502103010 60 197 0.0 0.0 0.00 0.00 0.00 89 1012.6
20260502101553 38 335 0.0 0.0 0.00 0.00 0.00 80 1021.8
20260502101502 60 197 0.0 0.0 0.00 0.00 0.00 89 1012.4
20260502071527 44 332 0.0 1.0 0.00 0.00 0.00 64 1021.2
20260502070043 61 197 0.0 0.0 0.00 0.00 0.00 87 1013.4
20260502070023 46 332 0.0 4.0 0.00 0.00 0.00 56 1021.4
20260502064544 61 197 0.0 0.0 0.00 0.00 0.00 87 1013.4
20260502064521 46 305 1.0 5.0 0.00 0.00 0.00 53 1021.4
20260502063053 61 197 0.0 0.0 0.00 0.00 0.00 86 1013.2
20260502063021 47 281 2.0 5.0 0.00 0.00 0.00 54 1021.4
20260502061542 62 197 0.0 0.0 0.00 0.00 0.00 86 1013.3
20260502061520 46 310 2.0 4.0 0.00 0.00 0.00 55 1021.4
20260502060043 62 197 0.0 0.0 0.00 0.00 0.00 86 1013.2
20260502060019 46 303 1.0 3.0 0.00 0.00 0.00 57 1021.4
20260502054540 62 197 0.0 0.0 0.00 0.00 0.00 86 1013.3
20260502054513 48 335 0.0 2.0 0.00 0.00 0.00 54 1021.4
20260502053042 62 197 0.0 0.0 0.00 0.00 0.00 85 1013.4
20260502053010 48 33 0.0 3.0 0.00 0.00 0.00 51 1021.3
20260502051539 62 197 0.0 0.0 0.00 0.00 0.00 85 1013.4
20260502051508 49 337 0.0 5.0 0.00 0.00 0.00 51 1021.3
20260502050039 63 197 0.0 0.0 0.00 0.00 0.00 84 1013.4
20260502050004 50 330 2.0 6.0 0.00 0.00 0.00 48 1021.3
20260502044537 63 197 0.0 0.0 0.00 0.00 0.00 84 1013.3
20260502044505 50 347 1.0 5.0 0.00 0.00 0.00 48 1021.2
20260502043038 63 197 0.0 0.0 0.00 0.00 0.00 84 1013.2
20260502043004 51 337 2.0 5.0 0.00 0.00 0.00 47 1021.0
20260502041538 63 197 0.0 0.0 0.00 0.00 0.00 84 1013.0
20260502041503 51 326 3.0 8.0 0.00 0.00 0.00 46 1021.1
20260502040037 64 197 0.0 0.0 0.00 0.00 0.00 83 1012.6
20260502040003 52 343 3.0 6.0 0.00 0.00 0.00 45 1021.0
20260502034536 64 197 0.0 0.0 0.00 0.00 0.00 81 1012.5
20260502034503 52 324 5.0 9.0 0.00 0.00 0.00 45 1020.9
20260502033043 65 197 0.0 0.0 0.00 0.00 0.00 80 1012.3
20260502033001 53 325 2.0 4.0 0.00 0.00 0.00 45 1020.7
20260502031535 65 195 0.0 0.0 0.00 0.00 0.00 79 1012.1
20260502031501 54 316 1.0 4.0 0.00 0.00 0.00 43 1020.5
20260502030035 66 195 0.0 0.0 0.00 0.00 0.00 78 1012.1
20260502030002 54 20 3.0 8.0 0.00 0.00 0.00 42 1020.4
20260502024536 67 189 0.0 0.0 0.00 0.00 0.00 77 1011.8
20260502024502 55 337 3.0 6.0 0.00 0.00 0.00 43 1020.0
20260502023100 55 354 4.0 9.0 0.00 0.00 0.00 41 1019.6
20260502023035 67 153 0.0 0.0 0.00 0.00 0.00 78 1011.6
20260502021601 56 343 3.0 8.0 0.00 0.00 0.00 43 1019.5
20260502021535 68 153 0.0 0.0 0.00 0.00 0.00 77 1011.5
20260502020059 56 354 2.0 5.0 0.00 0.00 0.00 44 1019.2
20260502020033 68 144 0.0 0.0 0.00 0.00 0.00 76 1011.2
20260502014600 57 359 2.0 5.0 0.00 0.00 0.00 43 1019.1
20260502014535 68 130 0.0 0.0 0.00 0.00 0.00 74 1011.1
20260502013058 58 325 4.0 9.0 0.00 0.00 0.00 41 1018.7
20260502013032 69 156 0.0 0.0 0.00 0.00 0.00 72 1011.0
20260502011559 59 345 4.0 10.0 0.00 0.00 0.00 40 1018.5
20260502011531 69 122 0.0 0.0 0.00 0.00 0.00 72 1010.9
20260502010057 59 326 3.0 12.0 0.00 0.00 0.00 39 1018.3
20260502010042 69 171 0.0 0.0 0.00 0.00 0.00 72 1011.0
20260502004559 60 291 7.0 15.0 0.00 0.00 0.00 39 1018.1
20260502004547 69 155 0.0 0.0 0.00 0.00 0.00 72 1010.9
20260502003056 60 343 6.0 13.0 0.00 0.00 0.00 38 1017.8
20260502003029 69 160 0.0 0.0 0.00 0.00 0.00 72 1011.0
20260502001558 61 337 7.0 17.0 0.00 0.00 0.00 37 1017.7
20260502001533 70 142 0.0 0.0 0.00 0.00 0.00 71 1011.0
20260502000100 61 342 6.0 15.0 0.00 0.00 0.00 37 1017.7
20260502000030 70 178 0.0 0.0 0.00 0.00 0.00 70 1011.2
20260501234559 62 316 5.0 16.0 0.00 0.00 0.00 36 1017.6
20260501234526 70 168 0.0 0.0 0.00 0.00 0.00 70 1011.3
20260501233055 62 343 8.0 15.0 0.00 0.00 0.00 35 1017.5
20260501233026 71 152 0.0 0.0 0.00 0.00 0.00 68 1011.2
20260501231556 62 15 8.0 16.0 0.00 0.00 0.00 35 1017.5
20260501231524 72 214 0.0 0.0 0.00 0.00 0.00 68 1011.2
20260501230100 62 20 9.0 16.0 0.00 0.00 0.00 34 1017.4
20260501230023 72 169 0.0 0.0 0.00 0.00 0.00 68 1011.3
20260501224553 62 345 11.0 18.0 0.00 0.00 0.00 35 1017.4
20260501224520 73 136 0.0 0.0 0.00 0.00 0.00 66 1011.6
20260501223051 63 342 9.0 17.0 0.00 0.00 0.00 34 1017.5
20260501223022 73 195 0.0 0.0 0.00 0.00 0.00 66 1011.7
20260501221556 64 330 10.0 16.0 0.00 0.00 0.00 32 1017.5
20260501221517 74 143 0.0 0.0 0.00 0.00 0.00 65 1011.6
20260501220049 64 331 8.0 17.0 0.00 0.00 0.00 32 1017.5
20260501220016 73 134 0.0 0.0 0.00 0.00 0.00 65 1012.0
20260501214552 63 299 7.0 15.0 0.00 0.00 0.00 34 1017.7
20260501214515 74 167 0.0 0.0 0.00 0.00 0.00 64 1012.3
20260501213050 63 349 6.0 18.0 0.00 0.00 0.00 33 1017.9
20260501213025 74 161 0.0 0.0 0.00 0.00 0.00 65 1012.4
20260501211545 64 354 8.0 16.0 0.00 0.00 0.00 32 1018.2
20260501211508 73 154 0.0 0.0 0.00 0.00 0.00 66 1012.4
20260501210044 63 307 2.0 19.0 0.00 0.00 0.00 31 1018.3
20260501210015 72 144 0.0 0.0 0.00 0.00 0.00 67 1012.5
20260501204541 64 303 9.0 16.0 0.00 0.00 0.00 33 1018.6
20260501204505 73 153 0.0 1.0 0.00 0.00 0.00 65 1012.6
20260501203042 63 278 6.0 19.0 0.00 0.00 0.00 33 1018.8
20260501203003 74 127 0.0 1.0 0.00 0.00 0.00 65 1012.5
20260501201602 73 77 0.0 0.0 0.00 0.00 0.00 64 1012.6
20260501201537 61 278 3.0 14.0 0.00 0.00 0.00 39 1018.9
20260501200100 73 150 0.0 0.0 0.00 0.00 0.00 64 1012.5
20260501200041 61 347 14.0 20.0 0.00 0.00 0.00 37 1019.1
20260501194600 73 143 0.0 0.0 0.00 0.00 0.00 64 1012.7
20260501194540 64 354 11.0 22.0 0.00 0.00 0.00 37 1019.2
20260501193104 73 144 0.0 0.0 0.00 0.00 0.00 64 1012.9
20260501193039 63 305 5.0 14.0 0.00 0.00 0.00 36 1019.2
20260501191550 72 154 0.0 0.0 0.00 0.00 0.00 66 1013.1
20260501191548 63 66 2.0 13.0 0.00 0.00 0.00 36 1019.2
20260501190109 71 157 0.0 0.0 0.00 0.00 0.00 69 1013.4
20260501190044 62 258 7.0 19.0 0.00 0.00 0.00 34 1019.2
20260501184556 70 155 0.0 0.0 0.00 0.00 0.00 68 1013.8
20260501184532 63 272 7.0 11.0 0.00 0.00 0.00 35 1019.2
20260501183041 69 152 0.0 0.0 0.00 0.00 0.00 72 1014.0
20260501183031 63 348 7.0 16.0 0.00 0.00 0.00 36 1019.4
20260501181543 66 153 0.0 0.0 0.00 0.00 0.00 75 1014.3
20260501181529 63 287 4.0 12.0 0.00 0.00 0.00 37 1019.5
20260501180046 66 155 0.0 0.0 0.00 0.00 0.00 75 1014.4
20260501180033 63 242 5.0 15.0 0.00 0.00 0.00 36 1019.6
20260501174538 65 155 0.0 0.0 0.00 0.00 0.00 76 1014.6
20260501174526 62 316 5.0 25.0 0.00 0.00 0.00 36 1019.8